[[{"header":{"parameterUnit":"m.s-1","parameterCategory":1,"la1":30.2991,"la2":30.254,"lo1":-89.0895,"lo2":-89.0444,"dy":0.0017,"dx":0.0017,"nx":28,"ny":28,"refTime":"2025-11-28T09:00:00:Z","depth":0,"parameterNumber":2,"parameterNumberName":"U-component_of_WINDS"},"data":[0,0,0,0,0,0,0,0,0,0,0,0,0,0,0,0,0,0,0,0,0,0,0,0,0,0,0,0,0,0,0,0,0,0,0,0,0,0,0,0,0,0,0,0,0,0,0,0,0,0,0,0,0,0,0,0,0,0,-2.1981,-2.1981,0,-2.2061,-2.2062,-2.2063,-2.1988,-2.1985,-2.1982,-2.198,-2.2062,-2.2067,-2.2072,0,0,0,0,0,0,0,0,0,0,0,0,0,-2.1763,-2.1767,-2.198,-2.1981,-2.1983,-2.2061,-2.2062,-2.2063,-2.1989,-2.1985,-2.1982,-2.1978,-2.206,-2.2066,-2.2072,0,0,0,0,0,0,0,0,0,0,0,0,0,-2.1852,-2.1769,-2.198,-2.1955,-2.1954,-2.206,-2.2062,-2.2063,-2.199,-2.1985,-2.1981,-2.1977,-2.2059,-2.2066,-2.2073,-2.2209,0,0,-2.2096,-2.2099,0,0,0,0,0,0,0,0,-2.1847,-2.186,-2.1958,-2.1957,-2.1956,-2.201,-2.2015,-2.2112,-2.1991,-2.1976,-2.198,-2.1974,-2.2048,-2.2056,-2.2081,-2.2213,-2.2216,-2.2097,-2.2101,-2.2104,-2.2107,0,0,0,0,0,0,0,-2.1841,-2.1856,-2.2012,-2.1959,-2.1958,-2.194,-2.1947,-2.2033,-2.2036,-2.1977,-2.1972,-2.1982,-2.2047,-2.2074,-2.2083,-2.2218,-2.2096,-2.2103,-2.2108,-2.2111,-2.2465,-2.247,0,0,0,0,0,0,-2.1837,-2.1851,-2.201,-2.2015,-2.1889,-2.1947,-2.1956,-2.1997,-2.2035,-2.2037,-2.1986,-2.1978,-2.2064,-2.2074,-2.2085,-2.2248,-2.2104,-2.2111,-2.2116,-2.246,-2.2466,-2.2471,0,0,0,0,0,0,-2.1833,-2.1852,-2.2006,-2.1932,-2.195,-2.1956,-2.2003,-2.2001,-2.2028,-2.2042,-2.2042,-2.2014,-2.2061,-2.2075,-2.2179,-2.225,-2.2115,-2.2122,-2.2454,-2.2462,-2.2469,-2.2574,0,0,0,0,0,0,-2.1827,-2.1851,-2.1903,-2.1933,-2.1954,-2.2099,-2.2007,-2.2006,-2.2041,-2.2032,-2.2068,-2.207,-2.2058,-2.2168,-2.2186,-2.2258,-2.2127,-2.2448,-2.2458,-2.2466,-2.2565,-2.2584,-2.2601,0,0,0,0,0,-2.182,-2.193,-2.1906,-2.1926,-2.2019,-2.2104,-2.2115,-2.21,-2.2047,-2.21,-2.2108,-2.2068,-2.2238,-2.2179,-2.2199,-2.2274,-2.2444,-2.2455,-2.2466,-2.2556,-2.2581,-2.2601,0,0,0,0,0,0,-2.1908,-2.1933,-2.1907,-2.203,-2.2065,-2.2091,-2.2157,-2.2126,-2.2177,-2.2166,-2.2145,-2.2153,-2.2264,-2.2279,-2.2212,-2.2408,-2.2333,-2.2348,-2.2395,-2.2418,-2.2436,-2.2431,-2.2134,0,0,0,0,0,-2.1941,-2.2008,-2.2026,-2.2133,-2.2152,-2.2151,-2.2187,-2.2172,-2.2208,-2.2222,-2.2238,-2.2274,-2.2336,-2.2377,-2.2434,-2.2565,-2.2572,-2.2626,-2.2644,-2.2659,-2.2674,-2.2745,-2.277,-2.2508,-2.2508,-2.2508,0,0,-2.2012,-2.2034,-2.2077,-2.2151,-2.2176,-2.2246,-2.2164,-2.2241,-2.2293,-2.2234,-2.2334,-2.2347,-2.2385,-2.2504,-2.2557,-2.252,-2.2748,-2.2674,-2.2686,-2.2692,-2.2759,-2.2784,-2.2806,-2.2515,-2.2514,-2.2513,0,0,-2.2177,-2.2199,-2.2291,-2.2318,-2.2357,-2.2356,-2.2378,-2.2408,-2.2415,-2.2514,-2.2472,-2.2532,-2.2638,-2.2668,-2.2697,-2.2871,-2.2837,-2.289,-2.2987,-2.3057,-2.3078,-2.3096,-2.316,-2.3183,-2.2904,-2.2904,-2.2904,0,-2.226,-2.2363,-2.2343,-2.2423,-2.2457,-2.2406,-2.2499,-2.2526,-2.2582,-2.2607,-2.2564,-2.2696,-2.2718,-2.2844,-2.2886,-2.291,-2.2936,-2.2888,-2.3076,-2.3094,-2.3111,-2.3172,-2.3196,-2.2911,-2.291,-2.2909,-2.2909,0,-2.2464,-2.2536,-2.2605,-2.2661,-2.2702,-2.2789,-2.2782,-2.2826,-2.2806,-2.281,-2.2912,-2.2936,-2.2998,-2.3026,-2.3008,-2.3149,-2.3124,-2.3079,-2.3004,-2.3143,-2.32,-2.3223,-2.292,-2.2917,-2.2916,-2.2914,0,0,-2.2689,-2.2731,-2.2758,-2.2783,-2.2821,-2.2877,-2.296,-2.302,-2.3059,-2.3099,-2.3169,-2.3259,-2.3218,-2.3251,-2.3235,-2.3296,-2.3434,-2.3243,-2.3244,-2.328,-2.3593,-2.3628,-2.3656,-2.341,-2.3414,-2.3418,-2.359,0,-2.2857,-2.3003,-2.2987,-2.3126,-2.3193,-2.3145,-2.3217,-2.3249,-2.3254,-2.3311,-2.3315,-2.3381,-2.332,-2.3339,-2.3397,-2.3405,-2.3497,-2.3392,-2.3477,-2.348,-2.3472,-2.3685,-2.3723,-2.3885,-2.3612,-2.3616,-2.3618,0,-2.3073,-2.3121,-2.3268,-2.3296,-2.3323,-2.3389,-2.3443,-2.3498,-2.3532,-2.3531,-2.3568,-2.3541,-2.3625,-2.3545,-2.3661,-2.359,-2.3623,-2.3632,-2.3638,-2.3648,-2.356,-2.3703,-2.3936,-2.3961,-2.3653,-2.365,-2.3647,0,-2.3226,-2.3326,-2.3427,-2.3449,-2.3485,-2.3532,-2.3549,-2.3579,-2.3616,-2.3663,-2.3687,-2.3742,-2.3773,-2.3817,-2.3806,-2.3749,-2.3925,-2.3844,-2.3927,-2.3928,-2.3969,-2.3967,-2.4213,-2.3986,-2.3986,-2.3985,-2.3985,0,-2.3417,-2.3509,-2.3496,-2.3559,-2.366,-2.3639,-2.374,-2.3751,-2.3778,-2.3841,-2.3801,-2.3862,-2.3842,-2.3901,-2.3893,-2.3991,-2.4004,-2.4006,-2.4004,-2.4012,-2.4012,-2.4035,-2.4025,-2.3992,-2.399,-2.3989,-2.3988,0,-2.3606,-2.3601,-2.3708,-2.3732,-2.374,-2.3814,-2.3835,-2.3894,-2.3894,-2.3975,-2.3992,-2.3994,-2.4061,-2.4054,-2.4129,-2.4123,-2.4246,-2.4228,-2.4235,-2.4232,-2.4316,-2.4309,-2.4588,-2.4624,-2.4371,-2.4374,-2.4376,0,-2.373,-2.38,-2.3831,-2.3871,-2.3891,-2.3955,-2.3993,-2.3974,-2.4015,-2.4059,-2.4113,-2.4176,-2.4227,-2.4337,-2.4345,-2.4402,-2.4387,-2.4481,-2.4396,-2.4402,-2.4391,-2.4389,-2.4396,-2.4499,-2.4502,-2.4504,-2.4506,0,-2.3951,-2.3945,-2.4001,-2.4056,-2.4102,-2.4145,-2.4183,-2.4217,-2.4202,-2.425,-2.4319,-2.4358,-2.4435,-2.4499,-2.4553,-2.457,-2.4537,-2.4532,-2.4555,-2.4565,-2.4567,-2.4569,-2.4283,-2.4526,-2.4524,-2.4523,-2.4522,-2.4521,-2.4113,-2.4173,-2.4205,-2.4268,-2.4295,-2.4331,-2.4388,-2.4395,-2.4452,-2.4514,-2.4498,-2.4576,-2.4608,-2.4677,-2.4699,-2.476,-2.4726,-2.4758,-2.4767,-2.4776,-2.4787,-2.4555,-2.4769,-2.4769,-2.4768,-2.4767,-2.4767,0,-2.4334,-2.4351,-2.441,-2.4465,-2.4515,-2.4477,-2.4517,-2.4562,-2.4631,-2.4663,-2.4714,-2.4793,-2.4854,-2.4866,-2.4925,-2.4971,-2.4957,-2.4987,-2.4985,-2.499,-2.4813,-2.4789,-2.4998,-2.4998,-2.4998,-2.4998,-2.4998,-2.4998,-2.4455,-2.4555,-2.4552,-2.4665,-2.4681,-2.4758,-2.4784,-2.4818,-2.4843,-2.4934,-2.4985,-2.4991,-2.5016,-2.5076,-2.5131,-2.5132,-2.5157,-2.5194,-2.519,-2.5025,-2.5002,-2.498,-2.4958,-2.5199,-2.5199,-2.5362,-2.5364,-2.5365]},{"header":{"parameterUnit":"m.s-1","parameterCategory":1,"la1":30.2991,"la2":30.254,"lo1":-89.0895,"lo2":-89.0444,"dy":0.0017,"dx":0.0017,"nx":28,"ny":28,"refTime":"2025-11-28T09:00:00:Z","depth":0,"parameterNumber":3,"parameterNumberName":"V-component_of_WINDS"},"data":[0,0,0,0,0,0,0,0,0,0,0,0,0,0,0,0,0,0,0,0,0,0,0,0,0,0,0,0,0,0,0,0,0,0,0,0,0,0,0,0,0,0,0,0,0,0,0,0,0,0,0,0,0,0,0,0,0,0,-6.9588,-6.959,0,-6.9747,-6.9749,-6.9751,-6.9652,-6.9647,-6.9642,-6.9638,-6.9794,-6.9802,-6.981,0,0,0,0,0,0,0,0,0,0,0,0,0,-6.9191,-6.9199,-6.9588,-6.959,-6.9592,-6.9747,-6.9749,-6.9751,-6.9653,-6.9647,-6.9641,-6.9636,-6.9791,-6.9801,-6.9811,0,0,0,0,0,0,0,0,0,0,0,0,0,-6.9358,-6.9201,-6.9587,-6.9561,-6.9561,-6.9746,-6.9749,-6.9752,-6.9654,-6.9647,-6.964,-6.9633,-6.9788,-6.98,-6.9812,-7.003,0,0,-6.9851,-6.9857,0,0,0,0,0,0,0,0,-6.9349,-6.9373,-6.9563,-6.9564,-6.9563,-6.9673,-6.9666,-6.9845,-6.9655,-6.9618,-6.9638,-6.963,-6.9759,-6.9773,-6.9818,-7.0038,-7.0044,-6.9852,-6.986,-6.9866,-6.9869,0,0,0,0,0,0,0,-6.9337,-6.9365,-6.965,-6.9566,-6.9566,-6.9539,-6.9555,-6.9699,-6.9725,-6.9621,-6.9614,-6.9635,-6.9757,-6.9806,-6.9821,-7.0047,-6.9852,-6.9863,-6.9871,-6.9876,-7.0453,-7.046,0,0,0,0,0,0,-6.9329,-6.9356,-6.9645,-6.9655,-6.9437,-6.9552,-6.957,-6.9644,-6.9723,-6.9729,-6.9641,-6.963,-6.9788,-6.9806,-6.9826,-7.0087,-6.9865,-6.9877,-6.9885,-7.0445,-7.0454,-7.0463,0,0,0,0,0,0,-6.932,-6.9355,-6.9639,-6.9504,-6.9538,-6.9567,-6.9651,-6.9651,-6.97,-6.9738,-6.9742,-6.9687,-6.9783,-6.9808,-6.9981,-7.0091,-6.9883,-6.9895,-7.0436,-7.0448,-7.0458,-7.061,0,0,0,0,0,0,-6.931,-6.9353,-6.9438,-6.9507,-6.9546,-6.9794,-6.9657,-6.9659,-6.9723,-6.971,-6.9782,-6.9788,-6.978,-6.9962,-6.9994,-7.0105,-6.9905,-7.0426,-7.0441,-7.0455,-7.0596,-7.0626,-7.0651,0,0,0,0,0,-6.9296,-6.9473,-6.9443,-6.9478,-6.9653,-6.9801,-6.9822,-6.9812,-6.9733,-6.9817,-6.9841,-6.9785,-7.0074,-6.9981,-7.0015,-7.0132,-7.0419,-7.0437,-7.0454,-7.0583,-7.062,-7.0651,0,0,0,0,0,0,-6.9413,-6.9481,-6.9449,-6.9654,-6.9723,-6.9784,-6.989,-6.9851,-6.9941,-6.9925,-6.9906,-6.9923,-7.0104,-7.0134,-7.003,-7.0347,-7.0234,-7.0259,-7.032,-7.0355,-7.0383,-7.0372,-6.9915,0,0,0,0,0,-6.9464,-6.958,-6.9632,-6.9808,-6.9844,-6.9862,-6.9925,-6.9911,-6.9981,-7.0008,-7.0045,-7.0113,-7.0218,-7.0288,-7.0387,-7.0599,-7.0613,-7.0696,-7.0724,-7.0746,-7.0768,-7.0883,-7.092,-7.0519,-7.0519,-7.0519,0,0,-6.9567,-6.9619,-6.9693,-6.9833,-6.9884,-7.0004,-6.9886,-7.0017,-7.0105,-7.0027,-7.0194,-7.0223,-7.0297,-7.049,-7.0577,-7.0521,-7.0882,-7.0769,-7.0786,-7.0796,-7.0904,-7.0942,-7.0976,-7.0531,-7.0529,-7.0527,0,0,-6.9819,-6.987,-7.0022,-7.0077,-7.0157,-7.0168,-7.0204,-7.0272,-7.029,-7.0457,-7.0401,-7.0503,-7.0686,-7.0741,-7.0793,-7.1065,-7.1017,-7.1098,-7.1244,-7.1355,-7.1387,-7.1415,-7.1512,-7.1547,-7.1119,-7.112,-7.112,0,-6.9937,-7.0117,-7.0104,-7.0241,-7.0303,-7.0241,-7.0394,-7.0447,-7.0555,-7.0598,-7.0535,-7.0764,-7.0808,-7.1014,-7.1081,-7.1125,-7.1165,-7.109,-7.1384,-7.1412,-7.1437,-7.153,-7.1567,-7.1129,-7.1128,-7.1127,-7.1126,0,-7.0259,-7.0385,-7.0498,-7.0607,-7.0682,-7.0826,-7.0833,-7.091,-7.0889,-7.0906,-7.1076,-7.1128,-7.1237,-7.1284,-7.1264,-7.1488,-7.1451,-7.1386,-7.1272,-7.1485,-7.1572,-7.1607,-7.1143,-7.1139,-7.1136,-7.1134,0,0,-7.0589,-7.069,-7.0732,-7.0781,-7.0865,-7.0961,-7.1101,-7.121,-7.1277,-7.1353,-7.1469,-7.1626,-7.1567,-7.1626,-7.1611,-7.1709,-7.1922,-7.1632,-7.1633,-7.1685,-7.2171,-7.222,-7.2262,-7.189,-7.1897,-7.1902,-7.2165,0,-7.0846,-7.1094,-7.1087,-7.1317,-7.1432,-7.1375,-7.1497,-7.156,-7.158,-7.1678,-7.1697,-7.1809,-7.1723,-7.1758,-7.1852,-7.1876,-7.202,-7.1857,-7.1997,-7.2002,-7.1982,-7.2307,-7.2359,-7.2605,-7.2199,-7.2205,-7.2209,0,-7.1179,-7.1269,-7.1512,-7.158,-7.1628,-7.1739,-7.1838,-7.1934,-7.2004,-7.2011,-7.2078,-7.2048,-7.2188,-7.207,-7.2262,-7.2152,-7.2208,-7.2228,-7.2237,-7.2251,-7.2119,-7.2329,-7.2683,-7.272,-7.2262,-7.2258,-7.2254,0,-7.1396,-7.1578,-7.1747,-7.1791,-7.1874,-7.1953,-7.1991,-7.2054,-7.2121,-7.2207,-7.225,-7.235,-7.2405,-7.2482,-7.2479,-7.2394,-7.2674,-7.2556,-7.2683,-7.2683,-7.2745,-7.2741,-7.3113,-7.278,-7.278,-7.2779,-7.2778,0,-7.1684,-7.1835,-7.1846,-7.195,-7.2117,-7.2106,-7.227,-7.23,-7.2357,-7.2464,-7.2419,-7.252,-7.251,-7.2611,-7.2609,-7.2769,-7.2793,-7.2801,-7.2799,-7.2807,-7.2806,-7.2844,-7.2827,-7.2789,-7.2787,-7.2785,-7.2783,0,-7.1955,-7.1969,-7.215,-7.2215,-7.2234,-7.2354,-7.2408,-7.2506,-7.2521,-7.2657,-7.2688,-7.2712,-7.2829,-7.2833,-7.2967,-7.2965,-7.316,-7.3138,-7.3138,-7.3134,-7.326,-7.3249,-7.3671,-7.3725,-7.3356,-7.336,-7.3363,0,-7.2138,-7.2254,-7.2332,-7.2402,-7.2445,-7.2558,-7.2626,-7.2619,-7.2692,-7.2781,-7.2868,-7.2981,-7.3071,-7.326,-7.3287,-7.3389,-7.337,-7.351,-7.3384,-7.3388,-7.3373,-7.3366,-7.3378,-7.3535,-7.3539,-7.3543,-7.3545,0,-7.2463,-7.2464,-7.2566,-7.2671,-7.2754,-7.2835,-7.2911,-7.297,-7.2971,-7.3054,-7.3175,-7.3245,-7.3383,-7.3496,-7.3595,-7.363,-7.3589,-7.3585,-7.362,-7.3628,-7.3624,-7.3629,-7.3205,-7.3575,-7.3572,-7.357,-7.3568,-7.3567,-7.2696,-7.2796,-7.2867,-7.2982,-7.3039,-7.311,-7.3206,-7.3234,-7.3335,-7.3449,-7.3437,-7.3571,-7.3637,-7.3767,-7.3811,-7.3914,-7.3865,-7.3916,-7.3929,-7.3942,-7.3956,-7.3607,-7.3932,-7.3931,-7.393,-7.3929,-7.3929,0,-7.3019,-7.3062,-7.3168,-7.3276,-7.3366,-7.3321,-7.3402,-7.348,-7.3599,-7.3666,-7.3757,-7.3895,-7.4004,-7.404,-7.4146,-7.4221,-7.4204,-7.4249,-7.4244,-7.4253,-7.3993,-7.3953,-7.4261,-7.4261,-7.4261,-7.4261,-7.4261,-7.426,-7.3197,-7.3365,-7.3375,-7.3569,-7.361,-7.3743,-7.3793,-7.3859,-7.3912,-7.407,-7.4161,-7.4185,-7.4239,-7.4349,-7.4446,-7.4453,-7.4495,-7.4548,-7.4547,-7.4304,-7.4271,-7.4239,-7.4201,-7.4557,-7.4557,-7.4799,-7.4801,-7.4803]}]]